User: anonymous   Login
Location: Unspecified
(0.0000°N, 0.0000°E)
Time: 21:18:25
(UTC+00:00)
Language:

AO-40 - Orbit

View from above orbital plane
View from above orbital plane
View from above satellite
View from above satellite

Ground track
Ground track

The orbit data is extracted from the following two-line orbital elements,

1 26609U 00072B   17321.96995361 -.00000150  00000-0  00000+0 0  9990
2 26609   6.5778 191.5013 7921732 182.2429 168.4931  1.25586360 78279
Epoch (UTC): 17 November 2017 23:16:43
Eccentricity: 0.7921732
inclination: 6.5778°
perigee height: 1163 km
apogee height: 58657 km
right ascension of ascending node: 191.5013°
argument of perigee: 182.2429°
revolutions per day: 1.25586360
mean anomaly at epoch: 168.4931°
orbit number at epoch: 7827

The dashed part of the orbit path shows where the satellite is in the earth's shadow,  

DLR